GW4420 Weather Reports


time (UTC)temp
C
wind
direction
speed
KPH
gust
KPH
rain 1hr
cm
rain 24hr
cm
rain mn
cm
humidity
%
barometer
mb
20260504100545 18 81 0.0 0.0 0.00 2.34 2.34 76 1020.8
20260504081939 18 60 1.6 3.2 0.00 2.34 2.34 77 1020.3
20260504081436 18 354 1.6 3.2 0.00 2.34 2.34 77 1020.2
20260504080932 17 87 1.6 3.2 0.00 2.34 2.34 77 1020.2
20260504080428 17 59 0.0 1.6 0.00 2.34 2.34 77 1020.4
20260504070350 18 52 1.6 9.7 0.00 2.24 2.24 81 1020.3
20260504050737 20 345 3.2 4.8 0.00 1.98 1.98 76 1019.9
20260504050235 20 287 1.6 12.9 0.00 1.98 1.98 76 1019.9
20260504045732 20 29 6.4 20.9 0.00 1.98 1.98 76 1020.2
20260504045227 20 91 6.4 9.7 0.00 1.98 1.98 77 1019.8
20260504044725 19 66 1.6 14.5 0.00 1.98 1.98 78 1020.1
20260504044222 19 333 3.2 9.7 0.00 1.98 1.98 78 1020.4
20260504043719 19 9 4.8 11.3 0.00 1.98 1.98 78 1020.2
20260504043215 19 347 6.4 12.9 0.00 1.98 1.98 77 1020.3
20260504042713 19 93 4.8 6.4 0.00 1.98 1.98 78 1020.5
20260504042210 20 26 6.4 6.4 0.00 1.98 1.98 79 1020.4
20260504041706 20 268 3.2 6.4 0.00 1.98 1.98 80 1020.4
20260504041201 20 51 0.0 6.4 0.00 1.98 1.98 81 1020.7
20260504040658 20 296 8.0 12.9 0.00 1.98 1.98 81 1020.6
20260504040155 20 43 1.6 1.6 0.00 1.98 1.98 83 1020.6
20260504035652 20 298 3.2 6.4 0.00 1.98 1.98 83 1020.7
20260504035149 20 98 1.6 4.8 0.00 1.98 1.98 83 1020.6
20260504034647 20 317 3.2 3.2 0.13 1.98 1.98 82 1020.9
20260504034143 20 128 1.6 6.4 0.13 1.98 1.98 82 1020.8
20260504033641 20 95 1.6 6.4 0.00 1.96 1.96 82 1020.9
20260504033138 20 359 1.6 1.6 0.00 1.96 1.96 83 1021.1
20260504032635 20 79 1.6 9.7 0.00 1.96 1.96 83 1021.1
20260504032132 20 273 3.2 6.4 0.00 1.96 1.96 84 1021.0
20260504031629 20 121 0.0 6.4 0.00 1.96 1.96 84 1021.2
20260504031125 20 43 0.0 4.8 0.00 1.96 1.96 85 1021.0
20260504030622 20 219 1.6 4.8 0.00 1.96 1.96 85 1021.1
20260504030119 20 156 4.8 9.7 0.00 1.96 1.96 85 1021.0
20260504025616 20 356 3.2 6.4 0.00 1.96 1.96 85 1020.8
20260504025113 20 84 0.0 4.8 0.00 1.96 1.96 85 1020.7
20260504024610 19 318 3.2 12.9 0.00 1.96 1.96 85 1020.7
20260504024107 19 216 4.8 12.9 0.00 1.96 1.96 87 1020.4
20260504023603 19 285 3.2 4.8 0.00 1.96 1.96 89 1020.6
20260504023059 19 77 0.0 1.6 0.00 1.96 1.96 89 1020.8
20260504022555 18 108 0.0 4.8 0.00 1.96 1.96 88 1020.8
20260504022051 18 349 1.6 4.8 0.18 1.96 1.96 88 1020.5
20260504021549 18 251 3.2 6.4 0.30 1.96 1.96 87 1020.3
20260504021046 18 61 4.8 9.7 0.13 1.93 1.93 87 1020.4
20260504020543 18 76 1.6 4.8 0.18 1.91 1.91 86 1020.5
20260504020039 18 260 3.2 3.2 0.18 1.91 1.91 86 1020.6
20260504015536 18 288 1.6 9.7 0.13 1.88 1.88 85 1020.6
20260504015032 18 301 6.4 16.1 0.43 1.88 1.88 84 1020.5
20260504014528 18 284 0.0 3.2 0.48 1.85 1.85 85 1020.8
20260504014025 18 345 6.4 12.9 0.48 1.80 1.80 84 1020.9
20260504013523 18 9 3.2 6.4 0.48 1.78 1.78 84 1021.2
20260504013020 18 273 1.6 6.4 0.48 1.73 1.73 83 1021.2
20260504012517 19 30 1.6 4.8 0.43 1.70 1.70 82 1021.6
20260504012015 19 57 1.6 4.8 0.00 1.63 1.63 82 1021.5
20260504011511 20 330 4.8 11.3 0.00 1.63 1.63 81 1021.4
20260504011007 20 343 3.2 4.8 0.00 1.63 1.63 80 1021.2
20260504010503 20 302 1.6 9.7 0.00 1.63 1.63 80 1020.9
20260504005959 20 294 3.2 11.3 0.00 1.63 1.63 80 1020.9
20260504005456 20 301 6.4 24.1 0.00 1.63 1.63 80 1020.7
20260504004954 20 42 8.0 22.5 0.00 1.63 1.63 79 1021.0
20260504004451 20 207 6.4 20.9 0.00 1.63 1.63 79 1020.8
20260504003948 20 316 17.7 25.7 0.18 1.63 1.63 79 1020.5
20260504003444 21 308 12.9 22.5 0.18 1.63 1.63 76 1020.5
20260504002941 21 303 4.8 11.3 0.00 1.60 1.60 77 1020.5
20260504002438 21 91 0.0 4.8 0.00 1.60 1.60 78 1020.3
20260504001936 21 301 4.8 9.7 0.00 1.60 1.60 79 1020.2
20260504001433 21 3 1.6 12.9 0.00 1.60 1.60 79 1019.9
20260504000929 21 291 9.7 14.5 0.00 1.60 1.60 78 1020.1
20260504000427 21 9 9.7 16.1 0.00 1.60 1.60 77 1020.2
20260503235924 21 335 0.0 14.5 0.00 1.60 1.60 77 1019.6
20260503235422 21 312 6.4 12.9 0.00 1.60 1.60 77 1019.4
20260503234919 21 358 4.8 9.7 0.00 1.60 1.60 77 1019.5
20260503234416 21 76 1.6 6.4 0.00 1.60 1.60 77 1019.9
20260503233914 21 107 0.0 6.4 0.00 1.60 1.60 77 1019.8
20260503233410 21 294 6.4 11.3 0.00 1.60 1.60 77 1019.7
20260503232907 21 32 3.2 6.4 0.00 1.60 1.60 78 1019.8
20260503232404 21 45 1.6 14.5 0.00 1.60 1.60 79 1019.6
20260503231902 21 266 4.8 6.4 0.00 1.60 1.60 81 1019.6
20260503231359 21 298 8.0 11.3 0.00 1.60 1.60 81 1019.6
20260503230855 21 268 3.2 6.4 0.00 1.60 1.60 82 1019.3
20260503230352 21 125 1.6 3.2 0.00 1.60 1.60 83 1019.2
20260503225850 21 266 1.6 4.8 0.00 1.60 1.60 83 1019.2
20260503225345 21 285 3.2 4.8 0.00 1.60 1.60 83 1019.1
20260503224842 21 275 4.8 11.3 0.00 1.60 1.60 83 1019.1
20260503224339 20 179 1.6 6.4 0.00 1.60 1.60 84 1019.3
20260503223837 20 87 0.0 4.8 0.00 1.60 1.60 84 1019.4
20260503223334 20 103 0.0 4.8 0.00 1.60 1.60 84 1019.4
20260503222830 20 241 6.4 12.9 0.00 1.60 1.60 85 1019.1
20260503222328 20 300 1.6 3.2 0.00 1.60 1.60 86 1018.8
20260503221826 20 109 1.6 4.8 0.00 1.60 1.60 87 1018.8
20260503221325 20 143 1.6 3.2 0.00 1.60 1.60 87 1018.3
20260503220820 20 106 1.6 4.8 0.00 1.60 1.60 87 1018.1
20260503220317 20 209 1.6 3.2 0.00 1.60 1.60 88 1017.7
20260503215814 20 262 3.2 9.7 0.00 1.60 1.60 88 1017.7
20260503215311 20 102 0.0 3.2 0.00 1.60 1.60 89 1017.7
20260503214809 20 307 1.6 3.2 0.00 1.60 1.60 89 1017.6
20260503214301 20 288 3.2 3.2 0.00 1.60 1.60 89 1017.6
20260503213758 20 104 0.0 1.6 0.00 1.60 1.60 89 1017.8
20260503213255 20 82 1.6 4.8 0.00 1.60 1.60 89 1017.4
20260503212752 19 263 0.0 6.4 0.00 1.60 1.60 89 1017.3
20260503212250 19 287 3.2 11.3 0.00 1.60 1.60 90 1017.4
20260503211747 19 244 3.2 9.7 0.00 1.60 1.60 91 1017.5
20260503211243 19 310 3.2 4.8 0.00 1.60 1.60 92 1017.5
20260503210739 20 275 1.6 3.2 0.00 1.60 1.60 92 1017.9
20260503210237 20 121 0.0 0.0 0.00 1.60 1.60 92 1017.9
20260503205732 20 100 0.0 0.0 0.00 1.60 1.60 92 1017.9
20260503205228 20 111 0.0 0.0 0.00 1.60 1.60 92 1017.8
20260503204724 20 117 0.0 0.0 0.00 1.60 1.60 92 1017.7
20260503204223 19 88 0.0 0.0 0.00 1.60 1.60 92 1017.7
20260503203720 19 99 0.0 1.6 0.00 1.60 1.60 91 1017.4
20260503203217 20 98 0.0 1.6 0.00 1.60 1.60 91 1017.2
20260503202714 20 150 0.0 3.2 0.00 1.60 1.60 91 1016.8
20260503202212 20 84 3.2 6.4 0.00 1.60 1.60 91 1016.5
20260503201710 20 181 1.6 3.2 0.13 1.60 1.60 92 1016.7
20260503201207 20 96 0.0 3.2 0.13 1.60 1.60 91 1016.6
20260503200703 20 83 0.0 6.4 0.00 1.57 1.57 91 1016.6
20260503200159 20 175 0.0 3.2 0.00 1.57 1.57 92 1016.7
20260503195656 20 320 3.2 4.8 0.00 1.57 1.57 92 1017.0
20260503195153 20 282 6.4 6.4 0.00 1.57 1.57 92 1016.8
20260503194650 20 339 3.2 4.8 0.00 1.57 1.57 92 1017.1
20260503194146 20 286 0.0 4.8 0.00 1.57 1.57 93 1017.3
20260503193643 20 325 1.6 4.8 0.00 1.57 1.57 93 1017.4
20260503193138 20 44 0.0 0.0 0.00 1.57 1.57 93 1017.4
20260503192634 20 140 0.0 0.0 0.00 1.57 1.57 93 1017.4
20260503192130 20 106 0.0 1.6 0.00 1.57 1.57 93 1017.1
20260503191627 20 97 0.0 1.6 0.00 1.57 1.57 93 1017.2
20260503191124 20 108 0.0 1.6 0.00 1.57 1.57 93 1016.9
20260503190621 20 1 1.6 6.4 0.00 1.57 1.57 93 1016.3
20260503190117 20 352 3.2 9.7 0.00 1.57 1.57 93 1016.0
20260503185614 20 78 1.6 6.4 0.00 1.57 1.57 93 1015.9
20260503185114 20 118 1.6 4.8 0.00 1.57 1.57 94 1016.3
20260503184609 20 306 3.2 4.8 0.00 1.57 1.57 94 1016.4
20260503184106 20 86 1.6 6.4 0.00 1.57 1.57 94 1016.3
20260503183603 20 98 0.0 4.8 0.00 1.57 1.57 94 1016.3
20260503183100 20 171 1.6 1.6 0.00 1.57 1.57 94 1016.7
20260503182558 20 74 0.0 1.6 0.00 1.57 1.57 94 1016.8
20260503182056 20 293 1.6 3.2 0.00 1.57 1.57 94 1016.7
20260503181553 20 98 0.0 0.0 0.00 1.57 1.57 94 1016.5
20260503181049 20 107 0.0 1.6 0.00 1.57 1.57 94 1016.6
20260503180546 20 108 1.6 9.7 0.00 1.57 1.57 94 1016.4
20260503180044 20 315 3.2 3.2 0.00 1.57 1.57 94 1016.6
20260503175541 20 88 0.0 1.6 0.00 1.57 1.57 94 1016.6
20260503175038 20 332 6.4 6.4 0.00 1.57 1.57 94 1016.5
20260503174535 20 213 4.8 6.4 0.18 1.57 1.57 94 1016.1
20260503174031 20 107 1.6 6.4 0.18 1.57 1.57 94 1016.4
20260503173526 20 159 1.6 4.8 0.00 1.55 1.55 94 1016.6
20260503173023 20 105 0.0 1.6 0.00 1.55 1.55 94 1017.0
20260503172521 20 295 1.6 3.2 0.13 1.55 1.55 94 1017.1
20260503172018 20 109 0.0 3.2 0.13 1.55 1.55 94 1016.7
20260503171514 20 226 0.0 6.4 0.00 1.52 1.52 94 1016.1
20260503171012 20 286 4.8 14.5 0.18 1.52 1.52 94 1015.2
20260503170508 20 341 8.0 12.9 0.30 1.50 1.50 94 1015.3
20260503150900 23 294 4.8 17.7 0.48 0.08 0.08 90 1016.5
20260503150356 23 129 0.0 1.6 0.18 0.03 0.03 90 1016.4
20260503131250 26 145 11.3 14.5 0.00 0.00 0.00 83 1015.3
20260503130748 26 38 1.6 6.4 0.00 0.00 0.00 83 1015.4
20260503130245 26 97 3.2 4.8 0.00 0.00 0.00 83 1015.4
20260503120211 26 92 1.6 4.8 0.00 0.00 0.00 87 1014.4
20260503110638 26 106 4.8 20.9 0.00 0.00 0.00 87 1014.2
20260503110136 26 117 3.2 12.9 0.00 0.00 0.00 86 1014.0